Ana Sayfa
METAR-TAF:

METAR-TAF

Havaalanları :

Wooster, Ohio, Amerika Birleşik Devletleri

Enlem: 40-52-23N, Boylam: 081-53-12W, yükseklik: 346 m

Güncel hava durumu gözlemi

Rapor saat 22:56 UTC de 1 saat ve 9 dakika önce yapıldı.
Rüzgar güneydan 3 kt
Sıcaklık 0°C
Nem 80%
Basınç 1018 hPa
Görüş mesafesi: 16.1 km
Açık gökyüzü

METAR: KBJJ 052256Z AUTO 19003KT 10SM CLR 00/M03 A3007 RMK AO2 SLP195 T00001033

Saat: 19:05 (00:05 UTC)


TAF: eksik

4.000'den fazla havaalanı için hava durumu gözlemleri ve tahminleri (METAR ve TAF raporları).

Kullanılabilir istasyonlar harita üzerinde sarı ve kırmızı noktalarla gösterilir.

İstasyonun adını görmek için fareyi noktanın üzerinde gezdirin.

Sonrasında hava gözlem ve tahminlerini görmek için tıklayın.

Haritayı değiştirmek için: yaklaştırmak için siyah artı işaretli yeşil düğmeye ve uzaklaştırmak için de eksi işaretli düğmeye hızla tıklayın; bitişik haritalar için yeşil okları kullanın.


METAR-TAF: